contact:dominique.lefevre@mio.osupytheas.fr, maurice.libes@osupytheas.fr, didier.mallarino@osupytheas.fr
Project:EMSO http://www.emso-fr.org/EMSO-France
Depth: 2436.0 m
Title:EMSO Ligure Ouest : Data MII capteur AQUADOPP
Date,Latitude,Longitude,X_East,Y_North,Z_Up,Amplitude_X,Amplitude_Y,Amplitude_Z,Batterie,SoundSpeed,Heading,Pitch,Roll,Pressure,TIS,Speed,Direction
, degrees North, degrees East, m.s-1, m.s-1,m.s-1, 1, 1, 1, Volt, m.s-1, degree, degree, degree, dbar, degree_C, m.s-1, degree
2019-06-04T00:09:04,42.805,6.029,-0.012,0.032,-0.013,98.0,106.0,96.0,13.4,1505.2,323.2,-0.8,1.9,2470.185,13.29,0.034,339.4
2019-06-04T00:12:05,42.805,6.029,-0.018,0.045,-0.005,98.0,107.0,96.0,13.4,1505.3,325.0,-0.8,1.9,2470.12,13.31,0.048,338.2
2019-06-04T00:15:06,42.805,6.029,-0.014,0.029,-0.027,97.0,106.0,99.0,13.4,1505.3,322.8,-0.8,1.9,2470.152,13.31,0.032,334.2
2019-06-04T00:18:07,42.805,6.029,-0.036,0.057,0.007,97.0,106.0,96.0,13.4,1505.3,326.0,-0.7,1.8,2470.153,13.32,0.067,327.7
2019-06-04T00:21:08,42.805,6.029,-0.057,0.037,-0.011,98.0,107.0,96.0,13.4,1505.3,323.6,-0.7,1.9,2470.162,13.32,0.067,303.0
2019-06-04T00:24:09,42.805,6.029,-0.018,0.029,-0.059,99.0,106.0,96.0,13.4,1505.3,326.3,-0.7,1.8,2470.104,13.32,0.034,328.2
2019-06-04T00:27:10,42.805,6.029,-0.049,0.039,-0.047,100.0,105.0,96.0,13.4,1505.3,325.9,-0.8,1.9,2470.059,13.33,0.062,308.5
2019-06-04T00:30:11,42.805,6.029,-0.02,0.053,-0.013,99.0,104.0,96.0,13.4,1505.3,323.0,-0.8,1.9,2470.096,13.33,0.056,339.3
2019-06-04T00:33:12,42.805,6.029,-0.023,0.033,-0.018,98.0,106.0,95.0,13.4,1505.3,326.5,-0.8,1.8,2470.096,13.33,0.04,325.1
2019-06-04T00:36:13,42.805,6.029,-0.032,0.047,-0.009,99.0,106.0,96.0,13.4,1505.3,326.9,-0.7,1.9,2470.1,13.33,0.056,325.8
2019-06-04T00:39:14,42.805,6.029,-0.016,0.039,-0.038,98.0,106.0,96.0,13.3,1505.3,327.1,-0.8,1.8,2470.086,13.33,0.042,337.7
2019-06-04T00:42:15,42.805,6.029,-0.022,0.043,-0.027,98.0,103.0,96.0,13.4,1505.3,325.0,-0.7,1.9,2470.102,13.33,0.048,332.9
2019-06-04T00:45:16,42.805,6.029,-0.022,0.02,-0.024,99.0,106.0,95.0,13.3,1505.3,323.4,-0.7,1.8,2470.083,13.33,0.029,312.3
2019-06-04T00:48:17,42.805,6.029,0.013,0.01,-0.006,98.0,105.0,98.0,13.3,1505.3,327.5,-0.7,1.9,2470.079,13.33,0.016,52.4
2019-06-04T00:51:18,42.805,6.029,-0.008,0.022,0.007,98.0,105.0,96.0,13.4,1505.3,325.3,-0.8,1.8,2470.128,13.33,0.023,340.0
2019-06-04T00:54:19,42.805,6.029,0.0,0.021,-0.01,100.0,105.0,97.0,13.4,1505.3,325.5,-0.8,1.8,2470.101,13.33,0.021,0.0
2019-06-04T00:57:20,42.805,6.029,0.011,0.041,0.023,97.0,107.0,96.0,13.3,1505.3,324.0,-0.8,1.9,2470.05,13.33,0.042,15.0
2019-06-04T01:00:21,42.805,6.029,-0.008,0.027,-0.051,99.0,106.0,97.0,13.4,1505.3,326.3,-0.7,1.8,2470.009,13.33,0.028,343.5
2019-06-04T01:03:22,42.805,6.029,-0.001,0.027,-0.009,100.0,107.0,97.0,13.4,1505.3,325.0,-0.8,1.8,2470.074,13.33,0.027,357.9
2019-06-04T01:06:23,42.805,6.029,-0.025,0.013,-0.052,100.0,107.0,98.0,13.3,1505.3,327.8,-0.8,1.9,2470.03,13.33,0.028,297.5
2019-06-04T01:09:24,42.805,6.029,-0.008,0.041,-0.022,101.0,107.0,98.0,13.4,1505.3,324.9,-0.7,1.8,2470.096,13.33,0.041,349.0
2019-06-04T01:12:25,42.805,6.029,-0.02,0.054,-0.019,98.0,107.0,96.0,13.4,1505.3,324.9,-0.8,1.8,2470.007,13.33,0.057,339.7
2019-06-04T01:15:26,42.805,6.029,0.006,0.05,-0.027,99.0,108.0,97.0,13.4,1505.3,324.0,-0.8,1.8,2470.082,13.33,0.05,6.8
2019-06-04T01:18:27,42.805,6.029,-0.005,0.045,-0.005,98.0,106.0,97.0,13.4,1505.3,325.4,-0.8,1.8,2470.016,13.33,0.045,353.7
2019-06-04T01:21:28,42.805,6.029,-0.016,0.018,-0.04,99.0,106.0,97.0,13.3,1505.3,327.6,-0.8,1.9,2470.04,13.33,0.024,318.4
2019-06-04T01:24:29,42.805,6.029,-0.002,0.044,-0.012,99.0,108.0,96.0,13.3,1505.3,326.4,-0.7,1.8,2470.033,13.33,0.044,357.4
2019-06-04T01:27:30,42.805,6.029,-0.018,0.023,-0.039,101.0,106.0,96.0,13.3,1505.3,323.3,-0.7,1.8,2470.081,13.33,0.029,322.0
2019-06-04T01:30:31,42.805,6.029,-0.013,0.032,-0.05,97.0,109.0,96.0,13.4,1505.4,326.0,-0.8,1.8,2470.074,13.34,0.034,337.9
2019-06-04T01:33:32,42.805,6.029,-0.007,0.009,-0.025,99.0,107.0,97.0,13.3,1505.4,324.8,-0.7,1.8,2470.044,13.34,0.011,322.1
2019-06-04T01:36:33,42.805,6.029,-0.019,0.014,-0.012,98.0,107.0,96.0,13.4,1505.4,324.9,-0.8,1.9,2470.013,13.34,0.023,306.4
2019-06-04T01:39:34,42.805,6.029,0.005,0.03,-0.007,98.0,107.0,96.0,13.4,1505.4,325.7,-0.7,1.9,2470.08,13.34,0.03,9.5
2019-06-04T01:42:35,42.805,6.029,0.005,0.029,-0.028,98.0,107.0,96.0,13.4,1505.4,325.1,-0.8,1.8,2470.05,13.34,0.029,9.8
2019-06-04T01:45:36,42.805,6.029,0.004,0.031,-0.052,97.0,106.0,96.0,13.4,1505.4,326.4,-0.7,1.9,2470.057,13.34,0.031,7.3
2019-06-04T01:48:37,42.805,6.029,0.03,0.012,-0.039,98.0,107.0,96.0,13.4,1505.4,328.1,-0.8,1.8,2470.053,13.34,0.032,68.2
2019-06-04T01:51:38,42.805,6.029,0.009,0.045,0.007,98.0,105.0,96.0,13.4,1505.4,325.1,-0.7,1.8,2469.989,13.34,0.045,11.3
2019-06-04T01:54:39,42.805,6.029,-0.028,0.034,-0.03,97.0,108.0,96.0,13.4,1505.4,323.0,-0.8,1.9,2470.042,13.34,0.044,320.5
2019-06-04T01:57:40,42.805,6.029,-0.021,0.018,-0.054,96.0,106.0,95.0,13.4,1505.4,328.3,-0.7,1.8,2470.095,13.34,0.027,310.6
2019-06-04T02:00:41,42.805,6.029,0.024,0.04,-0.012,97.0,104.0,96.0,13.4,1505.4,324.6,-0.7,1.8,2470.027,13.34,0.046,31.0
2019-06-04T02:03:42,42.805,6.029,0.012,0.008,-0.036,99.0,106.0,97.0,13.3,1505.4,326.9,-0.7,1.8,2470.056,13.34,0.014,56.3
2019-06-04T02:06:43,42.805,6.029,0.005,0.026,-0.01,97.0,106.0,96.0,13.3,1505.4,323.9,-0.7,1.8,2470.062,13.34,0.026,10.9
2019-06-04T02:09:44,42.805,6.029,-0.011,0.036,-0.029,98.0,105.0,98.0,13.4,1505.4,327.2,-0.7,1.8,2470.015,13.34,0.037,343.0
2019-06-04T02:12:45,42.805,6.029,-0.005,0.024,-0.023,101.0,105.0,98.0,13.4,1505.4,324.8,-0.7,1.9,2470.034,13.34,0.024,348.2
2019-06-04T02:15:46,42.805,6.029,0.0,0.025,-0.029,100.0,105.0,96.0,13.4,1505.4,326.5,-0.7,1.8,2470.014,13.34,0.025,0.0
2019-06-04T02:18:47,42.805,6.029,-0.011,0.031,-0.011,97.0,105.0,97.0,13.4,1505.4,326.3,-0.7,1.9,2470.006,13.34,0.032,340.5
2019-06-04T02:21:48,42.805,6.029,-0.006,0.021,-0.017,98.0,106.0,97.0,13.4,1505.4,324.7,-0.7,1.9,2470.018,13.34,0.021,344.1
2019-06-04T02:24:49,42.805,6.029,-0.01,0.038,-0.033,99.0,107.0,97.0,13.4,1505.4,325.8,-0.7,1.9,2470.033,13.34,0.039,345.3
2019-06-04T02:27:50,42.805,6.029,0.011,0.006,-0.038,100.0,106.0,97.0,13.4,1505.4,323.4,-0.8,1.8,2470.033,13.34,0.012,61.4
2019-06-04T02:30:51,42.805,6.029,-0.025,0.041,-0.027,98.0,105.0,98.0,13.3,1505.4,328.0,-0.8,1.8,2470.013,13.34,0.048,328.6
2019-06-04T02:33:52,42.805,6.029,-0.017,0.002,-0.033,98.0,105.0,96.0,13.4,1505.4,324.2,-0.8,1.8,2470.022,13.34,0.017,276.7
2019-06-04T02:36:53,42.805,6.029,-0.003,0.008,-0.053,98.0,106.0,96.0,13.4,1505.4,326.7,-0.7,1.9,2470.032,13.34,0.008,339.4
2019-06-04T02:39:54,42.805,6.029,-0.018,0.019,-0.034,99.0,105.0,96.0,13.3,1505.4,323.5,-0.7,1.8,2469.97,13.34,0.026,316.5
2019-06-04T02:42:55,42.805,6.029,-0.023,0.029,-0.053,99.0,106.0,96.0,13.3,1505.4,323.8,-0.7,1.9,2470.0,13.34,0.037,321.6
2019-06-04T02:45:56,42.805,6.029,-0.023,0.033,-0.064,101.0,105.0,96.0,13.4,1505.4,327.6,-0.8,1.8,2470.019,13.34,0.04,325.1
2019-06-04T02:48:57,42.805,6.029,-0.011,0.038,-0.017,98.0,105.0,97.0,13.4,1505.4,324.7,-0.8,1.9,2470.035,13.34,0.039,343.9
2019-06-04T02:51:58,42.805,6.029,-0.013,0.037,-0.041,99.0,105.0,96.0,13.4,1505.4,325.8,-0.8,1.9,2470.027,13.34,0.039,340.6
2019-06-04T02:54:59,42.805,6.029,-0.026,0.026,-0.044,99.0,105.0,95.0,13.4,1505.4,323.2,-0.7,1.9,2470.039,13.34,0.036,315.0
2019-06-04T02:58:00,42.805,6.029,-0.003,0.059,-0.007,98.0,105.0,96.0,13.4,1505.4,326.6,-0.8,1.9,2470.086,13.34,0.059,357.1
2019-06-04T03:01:01,42.805,6.029,0.019,0.032,0.007,96.0,106.0,96.0,13.4,1505.4,326.4,-0.7,1.8,2470.047,13.34,0.037,30.7
2019-06-04T03:04:02,42.805,6.029,-0.034,0.018,-0.043,95.0,106.0,97.0,13.4,1505.4,322.9,-0.7,1.9,2470.068,13.34,0.038,297.9
2019-06-04T03:07:03,42.805,6.029,-0.018,0.022,-0.06,97.0,105.0,96.0,13.4,1505.4,328.1,-0.8,1.8,2470.005,13.34,0.028,320.7
2019-06-04T03:10:04,42.805,6.029,-0.02,0.008,-0.07,100.0,107.0,96.0,13.3,1505.4,328.3,-0.7,1.8,2470.022,13.34,0.021,291.8
2019-06-04T03:13:05,42.805,6.029,0.01,0.038,-0.013,98.0,106.0,95.0,13.3,1505.4,326.8,-0.8,1.9,2470.059,13.34,0.039,14.7
2019-06-04T03:16:06,42.805,6.029,0.006,0.0,-0.04,95.0,106.0,97.0,13.4,1505.4,327.4,-0.7,1.8,2470.021,13.34,0.006,90.0
2019-06-04T03:19:07,42.805,6.029,0.006,0.044,-0.039,97.0,106.0,95.0,13.4,1505.4,325.8,-0.7,1.8,2470.04,13.34,0.044,7.8
2019-06-04T03:22:08,42.805,6.029,-0.005,0.003,-0.042,101.0,105.0,96.0,13.4,1505.4,323.8,-0.7,1.8,2470.051,13.34,0.005,301.0
2019-06-04T03:25:09,42.805,6.029,0.009,0.014,-0.028,99.0,108.0,96.0,13.3,1505.4,327.7,-0.7,1.9,2470.036,13.34,0.016,32.7
2019-06-04T03:28:10,42.805,6.029,-0.024,0.039,-0.082,105.0,107.0,95.0,13.4,1505.4,325.1,-0.8,1.8,2470.018,13.34,0.045,328.4
2019-06-04T03:31:11,42.805,6.029,0.007,0.01,-0.025,99.0,106.0,95.0,13.3,1505.4,326.9,-0.7,1.8,2470.068,13.34,0.012,35.0
2019-06-04T03:34:12,42.805,6.029,-0.027,0.028,-0.037,98.0,105.0,97.0,13.4,1505.4,325.7,-0.8,1.8,2470.079,13.34,0.038,316.0
2019-06-04T03:37:13,42.805,6.029,-0.005,0.031,-0.003,98.0,107.0,97.0,13.4,1505.4,325.1,-0.7,1.9,2470.043,13.34,0.031,350.8
2019-06-04T03:40:14,42.805,6.029,0.0,0.034,-0.071,99.0,105.0,95.0,13.3,1505.4,327.0,-0.7,1.9,2470.064,13.34,0.034,0.0
2019-06-04T03:43:15,42.805,6.029,0.005,0.026,-0.01,99.0,106.0,97.0,13.4,1505.4,327.6,-0.8,1.8,2470.035,13.34,0.026,10.9
2019-06-04T03:46:16,42.805,6.029,0.0,0.009,-0.05,100.0,108.0,96.0,13.4,1505.4,326.9,-0.7,1.8,2470.029,13.34,0.009,0.0
2019-06-04T03:49:17,42.805,6.029,-0.012,0.017,-0.053,99.0,104.0,97.0,13.3,1505.4,323.3,-0.8,1.9,2470.007,13.34,0.02,324.8
2019-06-04T03:52:18,42.805,6.029,0.007,0.013,-0.009,99.0,107.0,99.0,13.4,1505.4,324.3,-0.7,1.8,2470.061,13.34,0.014,28.3
2019-06-04T03:55:19,42.805,6.029,0.018,0.01,-0.048,96.0,107.0,97.0,13.3,1505.4,323.5,-0.7,1.8,2470.036,13.34,0.02,60.9
2019-06-04T03:58:20,42.805,6.029,-0.015,0.027,-0.023,100.0,107.0,97.0,13.4,1505.4,327.1,-0.7,1.8,2470.049,13.34,0.03,330.9
2019-06-04T04:01:21,42.805,6.029,0.007,0.035,-0.032,98.0,107.0,96.0,13.4,1505.4,325.2,-0.8,1.8,2470.077,13.34,0.035,11.3
2019-06-04T04:04:22,42.805,6.029,-0.011,0.006,-0.045,100.0,106.0,96.0,13.4,1505.4,326.1,-0.7,1.9,2470.059,13.34,0.012,298.6
2019-06-04T04:07:23,42.805,6.029,0.014,0.031,-0.064,97.0,107.0,96.0,13.4,1505.4,327.3,-0.7,1.8,2470.069,13.34,0.034,24.3
2019-06-04T04:10:24,42.805,6.029,-0.006,0.023,-0.028,100.0,107.0,98.0,13.3,1505.4,324.2,-0.7,1.8,2470.072,13.34,0.023,345.4
2019-06-04T04:13:25,42.805,6.029,-0.018,0.029,-0.035,98.0,106.0,98.0,13.3,1505.4,323.6,-0.7,1.8,2470.051,13.34,0.034,328.2
2019-06-04T04:16:26,42.805,6.029,-0.006,0.029,-0.021,97.0,107.0,96.0,13.4,1505.4,327.3,-0.7,1.9,2470.083,13.34,0.029,348.3
2019-06-04T04:19:27,42.805,6.029,-0.007,0.013,-0.024,97.0,107.0,97.0,13.4,1505.4,325.6,-0.8,1.8,2470.096,13.34,0.014,331.7
2019-06-04T04:22:28,42.805,6.029,0.004,0.022,-0.042,100.0,106.0,95.0,13.3,1505.4,323.3,-0.8,1.8,2470.024,13.34,0.022,10.3
2019-06-04T04:25:29,42.805,6.029,0.011,0.001,-0.027,98.0,106.0,96.0,13.4,1505.4,326.5,-0.7,1.8,2470.089,13.34,0.011,84.8
2019-06-04T04:28:30,42.805,6.029,-0.001,0.027,-0.02,98.0,106.0,95.0,13.3,1505.4,323.6,-0.7,1.8,2470.081,13.34,0.027,357.9
2019-06-04T04:31:31,42.805,6.029,0.016,0.03,-0.009,97.0,106.0,97.0,13.3,1505.4,324.9,-0.7,1.9,2470.084,13.34,0.034,28.1
2019-06-04T04:34:32,42.805,6.029,-0.017,0.021,-0.074,99.0,107.0,96.0,13.4,1505.4,323.0,-0.8,1.8,2470.1,13.34,0.027,321.0
2019-06-04T04:37:33,42.805,6.029,0.002,0.034,-0.03,98.0,106.0,97.0,13.4,1505.4,325.2,-0.7,1.9,2470.037,13.34,0.034,3.4
2019-06-04T04:40:34,42.805,6.029,0.0,0.03,-0.036,101.0,107.0,98.0,13.4,1505.4,326.3,-0.7,1.8,2470.048,13.34,0.03,0.0
2019-06-04T04:43:35,42.805,6.029,0.001,0.022,-0.012,100.0,106.0,97.0,13.4,1505.4,325.6,-0.8,1.9,2470.069,13.34,0.022,2.6
2019-06-04T04:46:36,42.805,6.029,0.03,0.013,-0.035,98.0,105.0,96.0,13.4,1505.4,324.8,-0.8,1.9,2470.08,13.34,0.032,66.6
2019-06-04T04:49:37,42.805,6.029,-0.007,0.042,-0.024,99.0,107.0,96.0,13.3,1505.4,323.2,-0.8,1.8,2470.108,13.34,0.042,350.5
2019-06-04T04:52:38,42.805,6.029,-0.018,0.034,-0.036,98.0,107.0,96.0,13.4,1505.4,328.3,-0.7,1.9,2470.113,13.34,0.038,332.1
2019-06-04T04:55:39,42.805,6.029,0.0,0.018,-0.019,99.0,105.0,96.0,13.4,1505.4,326.3,-0.7,1.9,2470.101,13.34,0.018,0.0
2019-06-04T04:58:40,42.805,6.029,0.013,0.02,-0.026,97.0,107.0,96.0,13.4,1505.4,325.2,-0.7,1.9,2470.092,13.34,0.023,33.0
2019-06-04T05:01:41,42.805,6.029,-0.031,0.01,-0.048,98.0,107.0,96.0,13.4,1505.4,324.2,-0.7,1.9,2470.071,13.34,0.032,287.9
2019-06-04T05:04:42,42.805,6.029,0.037,0.018,0.014,99.0,107.0,96.0,13.4,1505.4,326.1,-0.8,1.8,2470.135,13.34,0.041,64.1
2019-06-04T05:07:43,42.805,6.029,-0.009,0.03,-0.033,99.0,106.0,97.0,13.4,1505.4,327.7,-0.7,1.9,2470.1,13.34,0.031,343.3
2019-06-04T05:10:44,42.805,6.029,0.006,0.038,-0.029,100.0,107.0,95.0,13.4,1505.4,325.5,-0.8,1.8,2470.131,13.34,0.038,9.0
2019-06-04T05:13:45,42.805,6.029,0.006,0.022,-0.019,100.0,106.0,96.0,13.4,1505.4,322.8,-0.8,1.8,2470.144,13.34,0.022,15.3
2019-06-04T05:16:46,42.805,6.029,-0.009,0.001,-0.054,98.0,107.0,96.0,13.4,1505.4,325.6,-0.8,1.8,2470.131,13.34,0.009,276.3
2019-06-04T05:19:47,42.805,6.029,-0.007,0.014,-0.046,100.0,107.0,97.0,13.3,1505.4,324.4,-0.7,1.9,2470.112,13.35,0.015,333.4
2019-06-04T05:22:48,42.805,6.029,-0.031,0.023,-0.06,98.0,106.0,96.0,13.3,1505.4,328.3,-0.8,1.9,2470.136,13.34,0.038,306.6
2019-06-04T05:25:49,42.805,6.029,0.012,0.04,-0.022,99.0,106.0,96.0,13.3,1505.4,325.0,-0.7,1.8,2470.138,13.34,0.041,16.7
2019-06-04T05:28:50,42.805,6.029,0.009,0.02,-0.056,98.0,107.0,96.0,13.3,1505.4,325.7,-0.7,1.9,2470.139,13.34,0.021,24.2
2019-06-04T05:31:51,42.805,6.029,-0.014,-0.002,-0.067,99.0,105.0,98.0,13.4,1505.4,322.9,-0.8,1.8,2470.109,13.34,0.014,261.9
2019-06-04T05:34:52,42.805,6.029,-0.009,0.02,-0.02,100.0,106.0,98.0,13.3,1505.4,328.2,-0.7,1.8,2470.144,13.34,0.021,335.8
2019-06-04T05:37:53,42.805,6.029,-0.02,0.006,-0.045,99.0,106.0,97.0,13.4,1505.4,326.2,-0.7,1.8,2470.103,13.34,0.02,286.7
2019-06-04T05:40:54,42.805,6.029,-0.01,0.03,-0.034,102.0,106.0,96.0,13.4,1505.4,324.8,-0.7,1.9,2470.166,13.35,0.031,341.6
2019-06-04T05:43:55,42.805,6.029,-0.026,0.002,-0.046,99.0,107.0,98.0,13.3,1505.4,326.1,-0.8,1.8,2470.148,13.35,0.026,274.4
2019-06-04T05:46:56,42.805,6.029,-0.037,0.018,-0.065,101.0,107.0,96.0,13.4,1505.4,326.8,-0.8,1.9,2470.131,13.35,0.041,295.9
2019-06-04T05:49:57,42.805,6.029,-0.009,0.009,-0.034,102.0,108.0,97.0,13.4,1505.4,325.8,-0.7,1.9,2470.175,13.35,0.012,315.0
2019-06-04T05:52:58,42.805,6.029,0.015,0.01,-0.058,99.0,106.0,98.0,13.3,1505.4,324.1,-0.7,1.8,2470.126,13.35,0.018,56.3
2019-06-04T05:55:59,42.805,6.029,-0.033,0.014,-0.07,98.0,106.0,98.0,13.4,1505.4,323.0,-0.7,1.8,2470.128,13.35,0.035,293.0
2019-06-04T05:59:00,42.805,6.029,-0.016,0.027,-0.048,100.0,106.0,97.0,13.4,1505.4,324.0,-0.7,1.9,2470.139,13.35,0.031,329.3
2019-06-04T06:02:01,42.805,6.029,0.007,0.011,-0.01,100.0,106.0,99.0,13.4,1505.4,324.1,-0.8,1.9,2470.146,13.35,0.013,32.5
2019-06-04T06:05:02,42.805,6.029,0.004,0.022,-0.013,102.0,106.0,97.0,13.4,1505.4,327.7,-0.7,1.8,2470.135,13.35,0.022,10.3
2019-06-04T06:08:03,42.805,6.029,-0.001,0.007,-0.012,99.0,108.0,97.0,13.3,1505.4,326.7,-0.8,1.9,2470.171,13.35,0.007,351.9
2019-06-04T06:11:04,42.805,6.029,0.002,0.025,-0.043,97.0,108.0,99.0,13.3,1505.4,327.3,-0.8,1.8,2470.187,13.35,0.025,4.6
2019-06-04T06:14:05,42.805,6.029,0.025,0.017,0.022,100.0,106.0,96.0,13.3,1505.4,324.8,-0.8,1.9,2470.164,13.35,0.03,55.8
2019-06-04T06:17:06,42.805,6.029,0.023,0.026,0.019,99.0,106.0,96.0,13.4,1505.4,324.2,-0.7,1.9,2470.167,13.35,0.034,41.5
2019-06-04T06:20:07,42.805,6.029,0.016,0.012,0.02,98.0,104.0,97.0,13.3,1505.4,324.7,-0.8,1.8,2470.167,13.35,0.02,53.1
2019-06-04T06:23:08,42.805,6.029,-0.001,0.025,-0.015,99.0,106.0,97.0,13.3,1505.4,326.3,-0.8,1.9,2470.151,13.35,0.025,357.7
2019-06-04T06:26:09,42.805,6.029,0.002,0.033,-0.01,99.0,107.0,98.0,13.3,1505.4,324.7,-0.8,1.8,2470.168,13.35,0.033,3.5
2019-06-04T06:29:10,42.805,6.029,0.001,0.01,-0.031,102.0,105.0,97.0,13.4,1505.4,324.4,-0.7,1.8,2470.189,13.34,0.01,5.7
2019-06-04T06:32:11,42.805,6.029,-0.014,0.032,-0.03,99.0,105.0,98.0,13.3,1505.4,322.6,-0.8,1.8,2470.179,13.34,0.034,336.4
2019-06-04T06:35:12,42.805,6.029,-0.038,0.002,-0.068,98.0,105.0,98.0,13.3,1505.4,327.3,-0.8,1.9,2470.183,13.34,0.038,273.0
2019-06-04T06:38:13,42.805,6.029,-0.005,0.03,-0.028,100.0,106.0,96.0,13.4,1505.4,326.4,-0.8,1.9,2470.157,13.34,0.03,350.5
2019-06-04T06:41:14,42.805,6.029,-0.026,0.029,-0.022,101.0,106.0,96.0,13.3,1505.4,323.7,-0.8,1.8,2470.182,13.34,0.038,318.1
2019-06-04T06:44:15,42.805,6.029,-0.003,0.015,-0.016,102.0,104.0,96.0,13.4,1505.4,325.2,-0.7,1.8,2470.169,13.34,0.015,348.7
2019-06-04T06:47:16,42.805,6.029,-0.031,0.012,-0.053,99.0,106.0,97.0,13.4,1505.4,326.9,-0.8,1.9,2470.208,13.34,0.033,291.2
2019-06-04T06:50:17,42.805,6.029,-0.006,0.015,-0.038,100.0,105.0,96.0,13.4,1505.4,325.0,-0.7,1.8,2470.169,13.34,0.016,338.2
2019-06-04T06:53:18,42.805,6.029,-0.009,0.013,-0.012,99.0,106.0,95.0,13.4,1505.4,328.0,-0.7,1.8,2470.166,13.34,0.015,325.3
2019-06-04T06:56:19,42.805,6.029,0.003,0.021,-0.011,100.0,105.0,97.0,13.4,1505.4,326.1,-0.7,1.9,2470.198,13.34,0.021,8.1
2019-06-04T06:59:20,42.805,6.029,-0.001,0.013,-0.026,99.0,106.0,97.0,13.4,1505.4,323.8,-0.8,1.8,2470.191,13.34,0.013,355.6
2019-06-04T07:02:21,42.805,6.029,-0.024,0.024,-0.024,99.0,106.0,98.0,13.4,1505.4,326.6,-0.7,1.8,2470.188,13.34,0.033,315.0
2019-06-04T07:05:22,42.805,6.029,-0.026,0.018,-0.077,100.0,105.0,96.0,13.3,1505.4,326.3,-0.7,1.9,2470.166,13.34,0.031,304.7
2019-06-04T07:08:23,42.805,6.029,-0.012,0.012,-0.022,98.0,106.0,98.0,13.4,1505.4,328.1,-0.8,1.8,2470.203,13.34,0.016,315.0
2019-06-04T07:11:24,42.805,6.029,-0.014,0.023,-0.057,99.0,107.0,97.0,13.4,1505.4,325.8,-0.7,1.9,2470.166,13.34,0.026,328.7
2019-06-04T07:14:25,42.805,6.029,-0.005,0.011,-0.02,99.0,107.0,97.0,13.3,1505.4,327.4,-0.8,1.8,2470.203,13.34,0.012,335.6
2019-06-04T07:17:26,42.805,6.029,-0.01,0.04,-0.006,100.0,107.0,98.0,13.3,1505.4,326.1,-0.7,1.9,2470.171,13.34,0.041,346.0
2019-06-04T07:20:27,42.805,6.029,0.001,0.039,-0.001,100.0,108.0,97.0,13.4,1505.4,327.3,-0.7,1.8,2470.194,13.34,0.039,1.5
2019-06-04T07:23:28,42.805,6.029,-0.016,0.023,-0.029,99.0,108.0,95.0,13.4,1505.4,326.2,-0.7,1.9,2470.201,13.34,0.028,325.2
2019-06-04T07:26:29,42.805,6.029,-0.004,0.035,0.003,100.0,108.0,97.0,13.3,1505.4,324.2,-0.8,1.8,2470.232,13.34,0.035,353.5
2019-06-04T07:29:30,42.805,6.029,-0.009,0.008,-0.003,98.0,108.0,96.0,13.3,1505.4,324.6,-0.8,1.8,2470.151,13.34,0.012,311.6
2019-06-04T07:32:31,42.805,6.029,-0.012,0.026,-0.021,100.0,106.0,98.0,13.3,1505.4,322.6,-0.8,1.9,2470.186,13.34,0.028,335.2
2019-06-04T07:35:32,42.805,6.029,0.0,0.021,-0.025,102.0,107.0,98.0,13.4,1505.4,326.9,-0.8,1.9,2470.184,13.34,0.021,0.0
2019-06-04T07:38:33,42.805,6.029,0.019,0.024,0.012,100.0,107.0,96.0,13.3,1505.4,323.8,-0.7,1.9,2470.217,13.34,0.03,38.4
2019-06-04T07:41:34,42.805,6.029,0.022,0.028,0.021,99.0,106.0,98.0,13.4,1505.4,327.1,-0.7,1.8,2470.194,13.34,0.035,38.2
2019-06-04T07:44:35,42.805,6.029,0.017,0.026,-0.021,100.0,107.0,97.0,13.3,1505.4,325.9,-0.8,1.8,2470.192,13.34,0.031,33.2
2019-06-04T07:47:36,42.805,6.029,0.014,0.023,-0.001,101.0,107.0,98.0,13.4,1505.4,327.5,-0.7,1.9,2470.177,13.34,0.026,31.3
2019-06-04T07:50:37,42.805,6.029,-0.039,0.02,-0.06,100.0,108.0,98.0,13.3,1505.4,325.8,-0.8,1.8,2470.158,13.34,0.043,297.1
2019-06-04T07:53:38,42.805,6.029,-0.015,0.029,-0.028,100.0,108.0,96.0,13.4,1505.4,325.4,-0.8,1.9,2470.19,13.34,0.032,332.6
2019-06-04T07:56:39,42.805,6.029,-0.034,0.023,-0.034,101.0,107.0,96.0,13.4,1505.4,324.7,-0.8,1.8,2470.194,13.34,0.041,304.1
2019-06-04T07:59:40,42.805,6.029,-0.006,0.01,-0.017,100.0,107.0,98.0,13.4,1505.4,327.7,-0.7,1.8,2470.169,13.34,0.011,329.0
2019-06-04T08:02:41,42.805,6.029,0.01,0.022,-0.069,101.0,106.0,96.0,13.4,1505.4,326.3,-0.7,1.9,2470.17,13.34,0.024,24.4
2019-06-04T08:05:42,42.805,6.029,-0.016,0.02,-0.037,99.0,107.0,97.0,13.4,1505.4,325.4,-0.7,1.8,2470.171,13.34,0.025,321.3
2019-06-04T08:08:43,42.805,6.029,-0.003,0.036,-0.042,98.0,106.0,96.0,13.4,1505.4,324.2,-0.7,1.8,2470.127,13.34,0.036,355.2
2019-06-04T08:11:44,42.805,6.029,-0.022,0.014,-0.05,100.0,107.0,97.0,13.4,1505.4,323.8,-0.7,1.8,2470.15,13.34,0.026,302.5
2019-06-04T08:14:45,42.805,6.029,-0.012,0.026,-0.024,100.0,106.0,96.0,13.4,1505.4,323.9,-0.7,1.9,2470.171,13.34,0.028,335.2
2019-06-04T08:17:46,42.805,6.029,0.001,0.016,-0.021,100.0,106.0,97.0,13.3,1505.4,323.2,-0.8,1.9,2470.15,13.34,0.016,3.6
2019-06-04T08:20:47,42.805,6.029,-0.007,0.014,-0.002,98.0,106.0,97.0,13.4,1505.4,325.6,-0.7,1.8,2470.211,13.34,0.015,333.4
2019-06-04T08:23:48,42.805,6.029,-0.014,0.037,-0.04,99.0,106.0,96.0,13.3,1505.4,326.3,-0.7,1.9,2470.148,13.34,0.039,339.3
2019-06-04T08:26:49,42.805,6.029,-0.001,0.015,-0.001,102.0,106.0,98.0,13.4,1505.4,328.1,-0.7,1.9,2470.135,13.34,0.015,356.2
2019-06-04T08:29:50,42.805,6.029,0.01,0.025,-0.003,97.0,107.0,96.0,13.4,1505.4,324.4,-0.7,1.9,2470.193,13.34,0.026,21.8
2019-06-04T08:32:51,42.805,6.029,-0.006,0.011,-0.011,100.0,106.0,97.0,13.4,1505.4,325.9,-0.8,1.9,2470.198,13.34,0.012,331.4
2019-06-04T08:35:52,42.805,6.029,0.002,0.014,-0.04,101.0,108.0,96.0,13.4,1505.4,326.7,-0.7,1.8,2470.163,13.34,0.014,8.1
2019-06-04T08:38:53,42.805,6.029,0.008,0.022,0.0,100.0,106.0,97.0,13.3,1505.4,325.4,-0.8,1.8,2470.188,13.34,0.023,20.0
2019-06-04T08:41:54,42.805,6.029,-0.019,0.009,-0.033,99.0,105.0,98.0,13.4,1505.4,325.0,-0.7,1.8,2470.159,13.34,0.021,295.3
2019-06-04T08:44:55,42.805,6.029,-0.023,0.012,-0.034,99.0,104.0,97.0,13.4,1505.4,324.5,-0.7,1.9,2470.153,13.34,0.025,297.6
2019-06-04T08:47:56,42.805,6.029,0.004,0.02,-0.025,100.0,107.0,97.0,13.4,1505.4,325.2,-0.8,1.9,2470.185,13.34,0.02,11.3
2019-06-04T08:50:57,42.805,6.029,-0.002,0.025,-0.017,99.0,105.0,97.0,13.4,1505.4,324.1,-0.7,1.8,2470.184,13.34,0.025,355.4
2019-06-04T08:53:58,42.805,6.029,-0.022,0.037,-0.034,99.0,107.0,95.0,13.4,1505.4,323.9,-0.8,1.8,2470.146,13.34,0.043,329.3
2019-06-04T08:56:59,42.805,6.029,-0.004,0.038,-0.008,97.0,106.0,96.0,13.3,1505.4,326.7,-0.7,1.8,2470.135,13.34,0.038,354.0
2019-06-04T09:00:00,42.805,6.029,-0.03,0.011,-0.044,98.0,105.0,98.0,13.3,1505.4,324.5,-0.8,1.9,2470.151,13.34,0.031,290.1
2019-06-04T09:03:01,42.805,6.029,0.009,0.038,-0.012,101.0,107.0,96.0,13.4,1505.4,323.0,-0.7,1.8,2470.137,13.34,0.039,13.3
2019-06-04T09:06:02,42.805,6.029,-0.008,0.031,-0.03,101.0,106.0,96.0,13.4,1505.4,324.1,-0.7,1.8,2470.149,13.34,0.032,345.5
2019-06-04T09:09:03,42.805,6.029,-0.033,0.02,-0.027,99.0,107.0,97.0,13.3,1505.4,325.2,-0.7,1.8,2470.124,13.34,0.038,301.2
2019-06-04T09:12:04,42.805,6.029,0.001,0.024,-0.045,99.0,105.0,96.0,13.4,1505.4,328.3,-0.7,1.9,2470.161,13.34,0.024,2.4
2019-06-04T09:15:05,42.805,6.029,0.005,0.034,-0.056,98.0,106.0,96.0,13.4,1505.4,324.8,-0.7,1.8,2470.134,13.34,0.034,8.4
2019-06-04T09:18:06,42.805,6.029,-0.019,0.018,-0.046,98.0,107.0,97.0,13.3,1505.4,323.0,-0.7,1.8,2470.118,13.34,0.026,313.5
2019-06-04T09:21:07,42.805,6.029,0.005,0.021,-0.012,99.0,106.0,96.0,13.4,1505.4,325.3,-0.8,1.8,2470.157,13.34,0.021,13.4
2019-06-04T09:24:08,42.805,6.029,0.009,0.029,-0.006,99.0,106.0,95.0,13.3,1505.4,326.4,-0.7,1.9,2470.156,13.34,0.03,17.2
2019-06-04T09:27:09,42.805,6.029,-0.01,0.01,0.001,100.0,106.0,97.0,13.4,1505.4,324.8,-0.7,1.8,2470.08,13.34,0.014,315.0
2019-06-04T09:30:10,42.805,6.029,0.015,0.035,0.0,100.0,107.0,96.0,13.4,1505.4,326.2,-0.7,1.9,2470.102,13.34,0.038,23.2
2019-06-04T09:33:11,42.805,6.029,-0.013,0.032,-0.017,100.0,107.0,98.0,13.4,1505.4,324.2,-0.7,1.8,2470.103,13.34,0.034,337.9
2019-06-04T09:36:12,42.805,6.029,0.013,0.03,0.012,98.0,105.0,97.0,13.4,1505.4,323.4,-0.8,1.8,2470.159,13.34,0.032,23.4
2019-06-04T09:39:13,42.805,6.029,0.01,0.007,-0.026,98.0,107.0,97.0,13.4,1505.4,328.1,-0.8,1.8,2470.131,13.34,0.012,55.0
2019-06-04T09:42:14,42.805,6.029,0.007,0.032,-0.026,98.0,105.0,97.0,13.4,1505.4,326.2,-0.7,1.9,2470.117,13.34,0.032,12.3
2019-06-04T09:45:15,42.805,6.029,-0.011,0.025,-0.017,100.0,107.0,98.0,13.3,1505.4,322.7,-0.8,1.8,2470.124,13.34,0.027,336.3
2019-06-04T09:48:16,42.805,6.029,0.0,0.027,-0.027,100.0,104.0,96.0,13.3,1505.4,328.2,-0.7,1.8,2470.113,13.34,0.026,0.0